Overview Statistics Trail Chart Weather Telemetry Raw packets
 

This is the latest recevied weather packets stored in our database for station/object OK2VOP-6. If no packets are shown the sender has not sent any weather packets the latest 10 day(s).

<< 3 4 5 6 7 8 9 >>
Time Temp. Humidity Pressure Rain* Wind** Luminosity Snow
1788572249 21.67° C 31% - 0 mm - - -
1788571046 22.78° C 33% - 0 mm - - -
1788569839 22.22° C 31% - 0 mm - - -
1788568634 22.78° C 31% - 0 mm - - -
1788566225 22.22° C 32% - 0 mm - - -
1788565020 22.22° C 30% - 0 mm - - -
1788563815 22.78° C 30% - 0 mm - - -
1788562610 23.33° C 28% - 0 mm - - -
1788561405 23.33° C 27% - 0 mm - - -
1788560200 23.89° C 26% - 0 mm - - -
1788558996 24.44° C 24% - 0 mm - - -
1788557791 24.44° C 25% - 0 mm - - -
1788556586 24.44° C 24% - 0 mm - - -
1788555381 23.89° C 25% - 0 mm - - -
1788554178 23.89° C 26% - 0 mm - - -
1788552971 24.44° C 24% - 0 mm - - -
1788551766 25° C 24% - 0 mm - - -
1788550562 25° C 23% - 0 mm - - -
1788549359 25° C 24% - 0 mm - - -
1788548152 25.56° C 22% - 0 mm - - -
1788546947 25.56° C 22% - 0 mm - - -
1788545742 26.67° C 21% - 0 mm - - -
1788544537 26.67° C 19% - 0 mm - - -
1788543332 27.78° C 18% - 0 mm - - -
1788542127 28.89° C 15% - 0 mm - - -

* Rain latest hour (hover to see other rain measurements)
** Current wind speed in m/s (hover to see current wind gust speed)